Location: Unspecified
(0.0000°N, 0.0000°E)
Time: 22:54:14
(UTC+00:00)

Vanguard 1 - Pass Details

Date: 02 October 2020
Orbit: 649 x 3833 km, 34.3° (Epoch: 28 October)

Event Time Altitude Azimuth Distance (km) Brightness Sun altitude
Rises 04:31:30 0° 304° (NW) 3,488 - -19.4°
Reaches altitude 10° 04:33:33 10° 304° (NW) 2,753 - -18.9°
Exits shadow 04:35:26 23° 303° (WNW) 2,136 11.3 -18.4°
Maximum altitude 04:40:11 84° 216° (SW) 1,432 10.8 -17.2°
Drops below altitude 10° 04:52:50 10° 128° (SE) 4,993 14.5 -14.1°
Sets 04:57:54 0° 128° (SE) 6,517 15.3 -12.8°
